Wind_Speed
18 17 17 18 18 18 18 18 19 20 21 23 24 25 26 27 27 28 30 29 28 27 27 26 24 24 23 24 23 20 23 21 15 11 15 17 18 12 10 13 11 1 11
19 19 18 17 17 17 18 18 19 20 22 23 24 25 26 27 28 28 29 29 27 26 25 25 24 22 23 23 24 22 22 23 17 12 12 13 15 15 11 10 9 6 2
19 20 19 18 18 17 18 19 19 20 22 23 25 26 27 27 27 28 29 28 27 25 24 24 23 21 21 22 22 22 21 21 22 16 12 12 12 12 11 10 11 5 3
18 19 19 20 19 18 18 19 20 21 22 23 25 26 27 28 28 28 29 29 27 25 23 22 20 20 20 19 21 22 21 20 20 19 13 10 9 12 11 9 8 7 7
18 18 19 20 19 19 19 19 20 22 23 24 25 26 27 28 28 29 29 29 26 24 22 20 18 17 18 17 18 19 20 19 19 19 16 12 8 7 8 10 8 5 7
19 18 20 19 19 19 19 20 20 21 23 23 25 26 27 29 29 30 30 29 28 24 22 19 16 14 15 15 14 15 18 18 18 19 17 16 13 8 7 7 7 8 6
18 19 19 20 20 19 19 19 20 21 22 23 24 26 27 29 29 30 31 31 29 24 21 18 14 12 12 13 11 11 12 15 17 18 18 16 15 14 11 8 7 4 5
18 18 19 19 20 21 20 20 20 21 21 23 24 25 27 29 30 31 31 32 30 26 21 18 14 11 10 10 10 10 9 10 13 14 15 16 16 16 15 13 11 8 6
17 17 19 20 19 19 20 21 21 21 21 22 23 24 26 28 30 31 31 31 30 26 22 16 12 11 9 9 9 8 8 8 9 10 11 13 13 14 14 15 15 13 11
17 19 20 21 20 19 20 21 22 21 21 22 23 25 25 26 28 30 31 30 29 26 23 17 11 10 9 8 7 7 7 7 8 9 10 10 10 11 11 11 11 11 11
20 21 21 21 21 20 21 21 22 22 22 22 23 24 25 26 27 28 30 29 29 26 23 17 12 9 8 9 7 6 5 5 5 6 8 9 9 9 9 9 9 9 9
21 22 22 22 22 21 22 23 23 23 22 23 23 24 25 25 26 26 27 28 28 26 25 18 13 9 8 9 8 6 4 4 4 5 5 6 7 9 9 9 8 8 8
21 21 22 23 23 22 22 23 23 24 23 23 23 23 24 24 24 24 24 26 27 26 23 21 16 11 8 9 9 8 6 4 3 3 4 5 7 9 9 10 10 10 11
22 21 22 22 23 23 22 22 23 23 23 23 23 22 22 23 23 22 22 23 25 26 24 20 16 12 8 9 10 10 9 6 5 3 3 4 5 7 8 9 10 11 11
23 22 22 22 23 23 23 22 22 22 23 22 22 21 21 21 20 21 20 22 24 25 24 21 18 14 9 7 10 11 11 8 5 5 3 2 3 5 6 7 8 9 9
25 23 23 23 23 22 23 22 21 21 23 21 21 21 20 20 19 19 19 20 21 23 21 19 17 14 11 7 8 11 12 10 7 5 5 3 3 4 5 7 8 8 9
28 26 25 24 22 22 22 22 22 22 21 20 21 20 20 19 17 18 18 19 20 20 20 18 16 13 10 7 7 10 11 11 8 4 4 4 4 4 5 6 7 8 9
31 29 28 25 22 22 22 22 23 22 21 19 20 20 19 19 17 17 18 18 18 18 18 16 15 12 9 5 5 8 10 10 9 6 4 5 4 4 4 5 5 7 8
33 30 30 28 25 23 23 23 22 22 22 20 20 19 19 18 17 17 17 17 16 17 16 15 14 11 9 5 2 5 7 8 8 8 6 5 4 4 4 5 5 5 7
37 32 29 28 27 25 23 23 23 23 23 22 20 19 19 18 17 17 17 17 16 15 15 13 12 10 7 6 2 2 4 6 7 6 6 5 5 5 6 6 7 6 7
36 35 30 26 25 26 25 25 24 24 22 22 21 20 19 19 17 16 17 17 16 15 15 13 10 9 7 5 4 1 3 4 5 5 5 6 6 7 8 9 8 7 7
37 37 36 33 29 28 27 27 27 25 23 22 21 21 20 19 18 17 17 17 16 15 14 13 10 8 6 5 4 3 2 4 4 4 5 6 7 8 10 10 8 8 8
37 39 37 37 32 30 31 30 29 26 23 22 22 21 21 20 18 17 17 16 16 15 14 13 12 8 7 6 5 5 4 4 4 4 5 6 8 9 11 11 9 8 7
41 40 39 36 36 31 29 30 30 28 25 23 22 21 21 21 19 18 17 16 16 16 13 13 13 10 8 7 6 6 6 6 6 5 6 6 7 8 10 12 11 10 8
43 44 42 37 35 34 29 28 29 29 27 24 22 21 22 21 20 19 18 17 16 16 14 12 14 12 10 9 8 7 8 8 8 6 6 7 7 8 9 10 11 11 10
42 43 44 41 36 34 31 29 28 29 28 26 24 22 22 22 21 20 19 18 17 16 16 13 13 14 12 10 10 9 9 9 9 8 7 7 8 8 7 8 10 10 10
Wind_Direction
296 301 306 312 316 321 323 327 332 334 336 338 341 341 341 341 342 342 343 347 345 346 347 347 346 345 346 349 350 349 350 345 325 311 313 316 319 322 329 318 342 299 18
301 303 307 311 315 318 321 325 330 332 333 337 339 339 341 340 342 342 342 344 343 343 346 345 347 344 345 348 353 353 356 357 346 327 318 316 316 328 314 309 332 345 222
302 305 306 308 312 316 319 323 327 329 331 334 337 337 340 338 340 340 342 341 342 341 342 343 346 346 347 349 352 357 357 359 0 351 330 320 318 323 326 311 294 319 279
297 301 305 306 310 314 317 320 325 326 328 332 335 334 337 337 339 340 341 341 342 338 339 338 342 344 349 348 354 0 359 0 2 4 358 340 321 314 325 330 320 293 275
292 295 298 304 308 312 314 317 322 324 327 331 332 332 335 335 337 338 340 341 341 336 336 334 336 341 346 346 351 358 5 6 8 8 12 9 355 328 312 315 323 320 288
288 291 293 300 303 307 310 315 318 322 324 328 330 331 333 334 336 336 338 339 341 339 334 332 331 333 336 340 348 353 2 10 17 19 18 21 21 11 3 337 312 314 320
287 287 292 296 300 303 307 311 314 319 323 325 328 330 331 333 335 335 337 338 341 341 334 330 325 321 326 333 338 350 358 11 19 24 28 29 28 31 30 23 20 341 298
287 285 288 291 295 299 305 307 310 316 320 322 325 329 330 331 334 333 336 337 340 340 337 329 319 309 308 320 332 345 355 359 14 22 24 31 36 38 36 39 37 32 32
289 285 282 285 290 295 301 303 307 312 316 319 322 325 328 329 331 332 335 337 340 338 335 329 316 299 293 302 326 334 351 356 356 3 9 15 18 26 32 35 36 39 43
283 278 278 283 288 292 294 299 303 308 312 315 318 321 325 327 329 330 333 337 340 338 333 328 319 290 281 279 300 319 343 353 356 3 7 13 15 26 29 35 38 38 38
282 281 283 285 285 287 290 295 299 304 308 311 314 317 321 324 326 329 330 337 340 338 333 331 321 299 276 268 271 307 314 340 350 0 6 4 9 24 33 37 35 34 35
289 286 285 285 286 286 288 291 295 299 304 306 310 313 317 320 322 326 330 335 340 339 334 334 327 306 278 262 259 272 297 303 342 354 1 4 8 11 16 21 27 35 36
293 293 288 285 287 286 287 289 293 295 299 301 306 310 312 316 318 324 330 333 338 339 340 331 330 315 281 260 252 253 280 274 291 322 352 4 7 5 9 8 7 10 16
293 292 289 288 286 287 287 288 291 293 295 298 302 306 308 311 315 320 327 330 335 339 340 336 329 317 292 260 249 246 253 281 263 285 326 352 3 4 4 4 3 5 2
294 291 289 288 286 285 286 287 289 291 293 296 298 302 304 308 313 316 324 329 335 339 338 337 332 322 303 262 248 245 245 257 281 260 279 316 345 357 360 1 360 1 360
297 291 287 284 285 284 285 285 287 288 290 294 295 298 301 304 310 311 318 326 331 336 337 335 331 324 310 281 250 245 245 247 265 288 265 279 318 341 352 354 354 356 355
293 289 284 283 283 282 282 284 285 283 286 291 292 295 297 301 307 307 313 320 326 331 334 333 331 328 316 295 252 244 244 243 251 286 313 280 296 331 344 351 349 347 350
279 281 279 278 279 280 280 281 282 283 282 283 285 289 292 296 301 302 306 312 319 325 331 332 331 330 323 313 262 244 244 246 245 260 316 331 298 317 338 339 340 337 339
270 272 273 274 274 276 278 280 280 281 281 279 280 283 284 289 293 294 299 304 312 318 326 329 330 330 325 322 281 246 244 242 250 252 266 307 308 286 302 305 314 324 330
268 266 266 268 271 273 275 278 278 278 278 278 277 277 280 281 284 287 292 296 304 311 316 320 324 324 325 322 312 232 231 239 241 250 246 261 285 266 268 278 289 310 330
259 263 262 259 266 272 271 273 275 275 276 276 275 273 273 275 277 280 286 291 296 304 309 312 318 319 317 317 304 254 215 225 240 247 244 237 252 257 259 266 282 303 315
254 256 259 258 260 269 276 271 270 272 274 274 272 271 270 270 271 272 277 284 290 297 301 304 306 309 305 298 290 275 236 219 227 239 243 235 238 248 256 262 274 293 311
257 253 255 258 257 260 266 270 269 268 268 268 268 268 267 266 265 265 269 274 279 286 295 297 296 297 292 282 275 274 261 230 225 234 232 234 231 239 251 261 264 268 275
262 257 253 254 258 256 259 264 266 264 263 264 265 264 264 264 262 260 264 268 272 278 284 291 289 288 282 273 265 260 259 245 228 226 236 229 230 237 246 255 262 263 265
264 260 256 250 253 256 254 255 259 259 260 260 261 259 259 260 259 259 261 263 267 272 275 282 283 278 276 270 262 255 252 244 240 230 232 243 234 230 242 253 261 265 269
267 260 256 251 247 252 253 254 253 253 254 256 257 256 255 255 254 255 258 260 263 266 271 271 276 274 269 266 263 258 252 249 244 239 233 238 247 239 234 247 260 267 271
Height
3124 3123 3122 3120 3119 3117 3114 3111 3109 3105 3101 3098 3093 3089 3084 3079 3074 3068 3062 3057 3051 3046 3040 3034 3029 3024 3019 3013 3007 3002 2996 2990 2986 2984 2981 2978 2974 2975 2975 2972 2973 2973 2973
3122 3120 3118 3117 3115 3113 3111 3108 3105 3102 3099 3095 3091 3086 3081 3076 3071 3065 3059 3054 3049 3044 3038 3033 3028 3023 3018 3012 3007 3001 2996 2990 2985 2982 2980 2977 2973 2972 2973 2972 2972 2972 2972
3118 3117 3115 3113 3112 3110 3108 3105 3102 3099 3096 3092 3088 3083 3078 3072 3068 3062 3057 3051 3046 3040 3035 3031 3026 3021 3017 3012 3007 3001 2996 2991 2986 2982 2980 2977 2974 2972 2972 2971 2970 2972 2973
3113 3112 3111 3109 3108 3106 3104 3102 3099 3096 3093 3089 3085 3080 3075 3069 3064 3059 3053 3048 3042 3037 3032 3028 3024 3020 3015 3011 3006 3001 2997 2992 2987 2983 2979 2977 2975 2972 2970 2970 2970 2969 2971
3109 3108 3106 3105 3103 3102 3100 3098 3096 3093 3089 3086 3082 3076 3072 3067 3061 3056 3050 3045 3040 3034 3029 3026 3022 3018 3014 3009 3005 3001 2996 2992 2988 2983 2979 2976 2974 2972 2971 2969 2970 2970 2968
3104 3103 3102 3101 3099 3098 3096 3094 3092 3089 3085 3082 3079 3073 3069 3064 3058 3052 3047 3042 3037 3032 3026 3023 3019 3016 3012 3008 3004 3001 2997 2993 2989 2984 2980 2977 2974 2972 2970 2969 2968 2968 2968
3099 3098 3097 3096 3095 3093 3091 3089 3087 3085 3082 3078 3075 3070 3065 3060 3055 3049 3043 3038 3033 3028 3023 3019 3015 3013 3010 3007 3004 3001 2998 2995 2991 2987 2983 2979 2976 2973 2971 2969 2967 2967 2967
3093 3092 3091 3090 3089 3088 3086 3085 3082 3080 3078 3075 3071 3066 3062 3056 3052 3046 3040 3034 3029 3024 3020 3016 3012 3009 3007 3005 3003 3001 2998 2996 2993 2990 2987 2983 2979 2976 2973 2971 2969 2967 2966
3087 3086 3085 3084 3084 3082 3081 3080 3078 3076 3073 3070 3067 3063 3058 3053 3048 3042 3037 3032 3026 3021 3016 3012 3009 3006 3004 3003 3002 2999 2997 2995 2993 2991 2988 2985 2982 2979 2977 2974 2972 2970 2968
3081 3080 3079 3078 3078 3077 3076 3074 3073 3071 3069 3066 3062 3058 3054 3050 3044 3039 3033 3029 3024 3018 3013 3008 3005 3003 3001 3001 3000 2998 2996 2995 2993 2990 2989 2986 2984 2981 2979 2977 2975 2973 2971
3075 3074 3073 3072 3072 3071 3070 3068 3067 3065 3063 3061 3058 3054 3050 3046 3040 3035 3030 3025 3021 3015 3010 3005 3001 2999 2998 2998 2998 2997 2995 2993 2992 2990 2988 2986 2985 2982 2980 2978 2976 2975 2973
3069 3068 3067 3066 3065 3065 3063 3062 3061 3059 3058 3056 3053 3050 3046 3042 3037 3032 3027 3022 3017 3012 3006 3002 2998 2995 2994 2994 2995 2995 2993 2992 2990 2989 2987 2986 2985 2983 2981 2979 2978 2976 2974
3063 3062 3061 3060 3059 3058 3057 3056 3055 3053 3052 3050 3048 3045 3041 3037 3033 3029 3024 3018 3014 3009 3004 2999 2995 2992 2990 2991 2991 2992 2991 2990 2989 2988 2986 2985 2984 2983 2981 2980 2978 2976 2974
3057 3056 3055 3054 3053 3051 3050 3049 3048 3047 3045 3043 3041 3039 3036 3033 3029 3025 3021 3016 3011 3006 3001 2997 2993 2989 2987 2987 2988 2989 2989 2988 2987 2987 2986 2985 2983 2983 2981 2980 2978 2976 2974
3050 3049 3048 3047 3046 3045 3043 3042 3041 3040 3039 3037 3035 3033 3031 3028 3025 3021 3017 3013 3008 3003 2998 2994 2991 2987 2985 2984 2985 2986 2986 2986 2986 2985 2985 2984 2983 2982 2981 2980 2978 2977 2975
3044 3042 3041 3040 3039 3038 3037 3035 3034 3033 3032 3031 3029 3027 3025 3022 3020 3017 3013 3009 3005 3001 2997 2992 2989 2986 2982 2980 2981 2982 2983 2984 2984 2983 2983 2983 2982 2981 2980 2979 2978 2976 2975
3036 3035 3033 3032 3031 3030 3029 3029 3027 3026 3025 3024 3023 3021 3019 3017 3015 3012 3009 3006 3002 2998 2995 2991 2987 2984 2980 2978 2978 2979 2980 2982 2982 2982 2982 2982 2981 2981 2980 2978 2977 2975 2973
3026 3026 3026 3024 3023 3022 3021 3021 3020 3019 3018 3017 3016 3015 3013 3011 3009 3008 3005 3002 2999 2995 2991 2988 2985 2982 2979 2977 2976 2976 2977 2978 2979 2980 2981 2980 2980 2979 2978 2976 2975 2973 2972
3015 3015 3016 3016 3015 3015 3014 3013 3012 3012 3011 3010 3009 3008 3006 3005 3004 3002 3000 2998 2996 2992 2989 2985 2983 2980 2978 2975 2974 2973 2974 2975 2976 2977 2978 2979 2978 2977 2976 2974 2972 2971 2970
3006 3005 3004 3006 3007 3007 3006 3005 3005 3004 3004 3003 3003 3002 3000 2999 2998 2997 2996 2994 2992 2989 2987 2983 2980 2978 2976 2974 2972 2971 2971 2972 2973 2974 2975 2976 2976 2975 2973 2971 2970 2969 2968
2994 2995 2995 2995 2998 2998 2998 2997 2997 2996 2996 2996 2996 2995 2994 2993 2992 2991 2991 2989 2987 2985 2983 2980 2977 2975 2974 2972 2971 2969 2968 2969 2970 2971 2972 2972 2972 2971 2970 2969 2968 2968 2966
2980 2983 2985 2986 2986 2988 2989 2989 2988 2988 2988 2988 2988 2988 2987 2987 2986 2986 2985 2984 2982 2981 2979 2977 2974 2972 2970 2969 2968 2968 2966 2966 2966 2967 2968 2969 2969 2968 2966 2966 2966 2965 2965
2967 2970 2972 2975 2975 2976 2978 2980 2980 2980 2980 2980 2980 2980 2980 2980 2980 2980 2979 2979 2978 2976 2974 2973 2971 2968 2967 2966 2965 2965 2965 2964 2963 2964 2964 2965 2965 2965 2964 2963 2962 2962 2961
2956 2957 2959 2961 2965 2965 2966 2969 2971 2971 2972 2971 2972 2972 2972 2973 2973 2973 2973 2973 2972 2971 2969 2969 2968 2965 2963 2963 2962 2962 2962 2961 2960 2960 2961 2961 2961 2961 2960 2960 2959 2959 2958
2943 2945 2947 2948 2952 2955 2955 2956 2960 2962 2963 2963 2963 2964 2964 2965 2966 2966 2966 2966 2966 2966 2965 2963 2964 2962 2960 2959 2959 2958 2958 2958 2958 2957 2957 2958 2957 2956 2956 2956 2956 2955 2955
2929 2931 2934 2937 2939 2942 2944 2945 2948 2951 2953 2955 2955 2955 2956 2956 2958 2958 2959 2960 2960 2960 2960 2958 2958 2958 2956 2955 2955 2954 2954 2955 2954 2954 2953 2953 2954 2953 2952 2952 2953 2952 2952